GSAT0219 (PRN E36)

Last updated on June 13, 2019, 3:38 a.m. UTC

1 43566U 18060C   19163.30423085 -.00000090  00000-0  00000+0 0  9993
2 43566  56.5608  51.2351 0003162 300.9042  59.0985  1.70475403  5511
UTC
Height (km)
Latitude
Longitude
Inclination
Orbital Period
UTC large
Height (km)
Speed (km/s)
/
Latitude / Longitude
Inclination (degrees)
Orbital Period (minutes)
Azimuth
Elevation
Range (km)
Doppler Factor
iOS Compass Heading
iOS Angle

Next 30 passes for location: Hong Kong

Rise time Rise Azimuth (degrees) Set time Set Azimuth (degrees) Duration Max altitude (degrees)

No matching passes for this satellites